Weather in Horbachevo-Mykhailivka

Ukraine / Donetsk Region     47°51′08″N   38°00′38″E
temp.,
°C
wind,
m/s
gust,
m/s
humid.,
%
clouds,
%
prec.,
mm/h
press.,
hPa
HPBL,
m
9 march, tue
tue923:000w4796100 0.1 1012290
02:00−1wnw369499 0.2 1012234
05:00−3wnw489577 0.0 1013237
08:00−1wnw697839 0.0 1014729
11:00+1wnw68643 0.0 10161257
14:00+1wnw686247 0.1 10161422
17:00−1wnw496584 0.1 1018437
20:00−3nw487061 0.1 1020307
10 march, wed
wed1023:00−4nw366980 0.0 1022272
02:00−4nw257183 0.0 1024380
05:00−4n356778 0.0 1024822
08:00−4nne345840 0.0 1026898
11:00−2ne224365 0.0 10261189
14:00−1ne323983 0.0 10251175
17:00−2ne3448100 0.0 1023572
20:00−3ene3655100 0.0 1024430
11 march, thu
thu1123:00−3ene3656100 0.0 1024585
02:00−4ene3653100 0.0 1024624
05:00−4ene4751100 0.0 1024622
08:00−3ene584683 0.0 1025817
11:00−1ene67418 0.0 10251230
14:00−1ene67454 0.0 10251413
17:00−3ene685120 0.0 10251252
20:00−5ene685211 0.0 1028943
12 march, fri
fri1223:00−7ene67410 0.0 1029827
02:00−8ene57450 0.0 1029733
05:00−9ene57480 0.0 1031687
08:00−9e56400 0.0 1032642
11:00−5e56250 0.0 1031868
14:00−3ese44220 0.0 10311044
17:00−4ese462794 0.0 1030923
20:00−5se473367 0.0 1031820
13 march, sat
sat1323:00−5se473443 0.0 1031713
02:00−5sse484165 0.0 1030614
05:00−6se484687 0.0 1029453
08:00−4se684593 0.0 1030549
11:00−1sse684089 0.0 1029769
14:00+1sse574046 0.0 1027806
17:00−1se47500 0.0 1025516
20:00−2ese4105831 0.0 1025365